Home > Weather > Plovdiv > Past weeks

Flag for Bulgaria Past Weather in Plovdiv, Bulgaria — Yesterday and Last 2 Weeks

Now
75 °F

Partly sunny.


Feels Like: 78 °F
Forecast: 51 / 72 °F
Wind: 2 mph from North

Location: Plovdiv Airport

Current Time: May 24, 2016 at 3:05:50 PM

Latest Report: May 24, 2016 at 2:30 PM


Visibility: N/A

Pressure: 29.65 "Hg

Humidity: 54%

Dew Point: 57 °F

Location of PlovdivLocation

Past Weather in Plovdiv — Graph

°F

Plovdiv Temperature Yesterday

Maximum temperature yesterday: 81 °F (at 4:30 PM)
Minimum temperature yesterday: 48 °F (at 5:00 AM)
Average temperature yesterday: 65 °F

High & Low Weather Summary for the Past Weeks

 TemperatureHumidityPressure
High81 °F (May 23, 4:30 PM)100% (May 9, 11:00 PM)30.15 "Hg (May 9, 11:00 PM)
Low45 °F (May 19, 3:00 AM)28% (May 18, 7:00 PM)29.53 "Hg (May 13, 3:30 AM)
Average62 °F74%29.90 "Hg
* Reported May 9 1:00 PM — May 24 1:30 PM, Plovdiv, Weather by CustomWeather, © 2016

Note: Actual official high and low records may vary slightly from our data, if they occured in-between our weather recording intervals... More about our weather records

Advertising

Plovdiv Weather History for the Previous 24 Hours

Scroll right to see more
 ConditionsComfort  
Time TempWeatherWind HumidityBarometerVisibility
1:30 PM
Tue, May 24
73 °FPassing clouds.6 mph53%29.68 "HgN/A
1:00 PM73 °FPassing clouds.8 mph61%29.68 "HgN/A
12:30 PM70 °FScattered clouds.8 mph60%29.71 "HgN/A
12:00 PM70 °FPassing clouds.8 mph60%29.74 "HgN/A
11:30 AM70 °FMild.7 mph57%29.74 "HgN/A
11:00 AM68 °FMild.8 mph60%29.77 "HgN/A
10:30 AM64 °FMild.6 mph68%29.77 "HgN/A
10:00 AM63 °FPassing clouds.2 mph73%29.80 "HgN/A
9:30 AM61 °FCool.1 mph83%29.80 "HgN/A
9:00 AM61 °FCool.5 mph83%29.80 "HgN/A
8:30 AM61 °FCool.2 mph83%29.80 "HgN/A
8:00 AM59 °FCool.2 mph88%29.80 "HgN/A
7:30 AM57 °FCool.No wind94%29.80 "HgN/A
7:00 AM55 °FCool.1 mph88%29.80 "HgN/A
6:30 AM55 °FCool.3 mph88%29.83 "HgN/A
6:00 AM55 °FCool.5 mph88%29.80 "HgN/A
5:30 AM57 °FCool.3 mph77%29.80 "HgN/A
5:00 AM57 °FPassing clouds.No wind82%29.80 "HgN/A
4:30 AM57 °FPassing clouds.No wind88%29.83 "HgN/A
4:00 AM59 °FPassing clouds.3 mph77%29.83 "HgN/A
3:30 AM57 °FCool.2 mph82%29.83 "HgN/A
3:00 AM55 °FPassing clouds.3 mph88%29.86 "HgN/A
2:30 AM57 °FPassing clouds.5 mph82%29.86 "HgN/A
2:00 AM57 °FCool.3 mph82%29.86 "HgN/A
1:30 AM54 °FCool.3 mph88%29.86 "HgN/A
1:00 AM55 °FCool.3 mph88%29.86 "HgN/A
12:30 AM57 °FCool.3 mph82%29.86 "HgN/A
12:00 AM59 °FCool.3 mph82%29.86 "HgN/A
11:30 PM
Mon, May 23
59 °FCool.2 mph77%29.86 "HgN/A
11:00 PM63 °FPassing clouds.No wind68%29.89 "HgN/A
10:30 PM61 °FPassing clouds.5 mph72%29.89 "HgN/A
10:00 PM64 °FMild.No wind60%29.86 "HgN/A
9:30 PM64 °FMild.2 mph64%29.86 "HgN/A
9:00 PM68 °FMild.6 mph60%29.86 "HgN/A
8:30 PM70 °FMild.3 mph60%29.86 "HgN/A
8:00 PM73 °FMild.6 mph50%29.86 "HgN/A
7:30 PM75 °FMild.6 mph41%29.89 "HgN/A
7:00 PM77 °FPleasantly warm.8 mph36%29.89 "HgN/A
6:30 PM79 °FPleasantly warm.9 mph32%29.89 "HgN/A
6:00 PM79 °FPleasantly warm.8 mph32%29.89 "HgN/A
5:30 PM79 °FPleasantly warm.7 mph30%29.89 "HgN/A
5:00 PM79 °FPleasantly warm.6 mph30%29.92 "HgN/A
4:30 PM81 °FPleasantly warm.6 mph30%29.92 "HgN/A
4:00 PM79 °FPleasantly warm.5 mph34%29.92 "HgN/A
3:30 PM79 °FPleasantly warm.5 mph32%29.95 "HgN/A
3:00 PM79 °FPleasantly warm.3 mph34%29.95 "HgN/A
Weather by CustomWeather, © 2016

See weather overviewHow to use our weather pages